Year,Month,Day,Hour,Minute,Value (Times are PST for temperature in C)
2008,08,26,00,00,8.90
2008,08,26,00,01,8.90
2008,08,26,00,02,8.90
2008,08,26,00,03,9.00
2008,08,26,00,04,9.10
2008,08,26,00,05,9.20
2008,08,26,00,06,9.20
2008,08,26,00,07,9.30
2008,08,26,00,08,9.30
2008,08,26,00,09,9.40
2008,08,26,00,10,9.40
2008,08,26,00,11,9.50
2008,08,26,00,12,9.60
2008,08,26,00,13,9.60
2008,08,26,00,14,9.60
2008,08,26,00,15,9.60
2008,08,26,00,16,9.60
2008,08,26,00,17,9.60
2008,08,26,00,18,9.60
2008,08,26,00,19,9.60
2008,08,26,00,20,9.60
2008,08,26,00,21,9.50
2008,08,26,00,22,9.50
2008,08,26,00,23,9.40
2008,08,26,00,24,9.40
2008,08,26,00,25,9.40
2008,08,26,00,26,9.30
2008,08,26,00,27,9.30
2008,08,26,00,28,9.20
2008,08,26,00,29,9.20
2008,08,26,00,30,9.10
2008,08,26,00,31,9.10
2008,08,26,00,32,9.10
2008,08,26,00,33,9.10
2008,08,26,00,34,9.20
2008,08,26,00,35,9.20
2008,08,26,00,36,9.20
2008,08,26,00,37,9.20
2008,08,26,00,38,9.20
2008,08,26,00,39,9.20
2008,08,26,00,40,9.20
2008,08,26,00,41,9.20
2008,08,26,00,42,9.30
2008,08,26,00,43,9.40
2008,08,26,00,44,9.50
2008,08,26,00,45,9.50
2008,08,26,00,46,9.50
2008,08,26,00,47,9.50
2008,08,26,00,48,9.60
2008,08,26,00,49,9.60
2008,08,26,00,50,9.60
2008,08,26,00,51,9.60
2008,08,26,00,52,9.60
2008,08,26,00,53,9.50
2008,08,26,00,54,9.50
2008,08,26,00,55,9.50
2008,08,26,00,56,9.40
2008,08,26,00,57,9.40
2008,08,26,00,58,9.30
2008,08,26,00,59,9.30
2008,08,26,01,00,9.20
2008,08,26,01,01,9.20
2008,08,26,01,02,9.10
2008,08,26,01,03,9.00
2008,08,26,01,04,9.00
2008,08,26,01,05,8.90
2008,08,26,01,06,8.90
2008,08,26,01,07,8.90
2008,08,26,01,08,8.80
2008,08,26,01,09,8.80
2008,08,26,01,10,8.80
2008,08,26,01,11,8.70
2008,08,26,01,12,8.70
2008,08,26,01,13,8.70
2008,08,26,01,14,8.60
2008,08,26,01,15,8.60
2008,08,26,01,16,8.60
2008,08,26,01,17,8.50
2008,08,26,01,18,8.50
2008,08,26,01,19,8.40
2008,08,26,01,20,8.40
2008,08,26,01,21,8.40
2008,08,26,01,22,8.40
2008,08,26,01,23,8.30
2008,08,26,01,24,8.30
2008,08,26,01,25,8.30
2008,08,26,01,26,8.30
2008,08,26,01,27,8.30
2008,08,26,01,28,8.30
2008,08,26,01,29,8.30
2008,08,26,01,30,8.30
2008,08,26,01,31,8.30
2008,08,26,01,32,8.30
2008,08,26,01,33,8.30
2008,08,26,01,34,8.30
2008,08,26,01,35,8.30
2008,08,26,01,36,8.30
2008,08,26,01,37,8.20
2008,08,26,01,38,8.20
2008,08,26,01,39,8.20
2008,08,26,01,40,8.20
2008,08,26,01,41,8.10
2008,08,26,01,42,8.10
2008,08,26,01,43,8.10
2008,08,26,01,44,8.10
2008,08,26,01,45,8.00
2008,08,26,01,46,8.00
2008,08,26,01,47,8.00
2008,08,26,01,48,7.90
2008,08,26,01,49,7.90
2008,08,26,01,50,7.90
2008,08,26,01,51,7.90
2008,08,26,01,52,7.80
2008,08,26,01,53,7.80
2008,08,26,01,54,7.80
2008,08,26,01,55,7.80
2008,08,26,01,56,7.80
2008,08,26,01,57,7.80
2008,08,26,01,58,7.80
2008,08,26,01,59,7.70
2008,08,26,02,00,7.70
2008,08,26,02,01,7.70
2008,08,26,02,02,7.70
2008,08,26,02,03,7.70
2008,08,26,02,04,7.70
2008,08,26,02,05,7.60
2008,08,26,02,06,7.60
2008,08,26,02,07,7.60
2008,08,26,02,08,7.60
2008,08,26,02,09,7.50
2008,08,26,02,10,7.50
2008,08,26,02,11,7.50
2008,08,26,02,12,7.50
2008,08,26,02,13,7.40
2008,08,26,02,14,7.40
2008,08,26,02,15,7.40
2008,08,26,02,16,7.40
2008,08,26,02,17,7.40
2008,08,26,02,18,7.40
2008,08,26,02,19,7.40
2008,08,26,02,20,7.40
2008,08,26,02,21,7.40
2008,08,26,02,22,7.40
2008,08,26,02,23,7.40
2008,08,26,02,24,7.30
2008,08,26,02,25,7.30
2008,08,26,02,26,7.30
2008,08,26,02,27,7.40
2008,08,26,02,28,7.40
2008,08,26,02,29,7.40
2008,08,26,02,30,7.40
2008,08,26,02,31,7.40
2008,08,26,02,32,7.40
2008,08,26,02,33,7.40
2008,08,26,02,34,7.30
2008,08,26,02,35,7.30
2008,08,26,02,36,7.30
2008,08,26,02,37,7.30
2008,08,26,02,38,7.30
2008,08,26,02,39,7.30
2008,08,26,02,40,7.30
2008,08,26,02,41,7.30
2008,08,26,02,42,7.30
2008,08,26,02,43,7.30
2008,08,26,02,44,7.20
2008,08,26,02,45,7.20
2008,08,26,02,46,7.20
2008,08,26,02,47,7.20
2008,08,26,02,48,7.20
2008,08,26,02,49,7.20
2008,08,26,02,50,7.20
2008,08,26,02,51,7.20
2008,08,26,02,52,7.20
2008,08,26,02,53,7.20
2008,08,26,02,54,7.20
2008,08,26,02,55,7.20
2008,08,26,02,56,7.20
2008,08,26,02,57,7.20
2008,08,26,02,58,7.20
2008,08,26,02,59,7.20
2008,08,26,03,00,7.20
2008,08,26,03,01,7.20
2008,08,26,03,02,7.20
2008,08,26,03,03,7.20
2008,08,26,03,04,7.30
2008,08,26,03,05,7.30
2008,08,26,03,06,7.30
2008,08,26,03,07,7.40
2008,08,26,03,08,7.40
2008,08,26,03,09,7.40
2008,08,26,03,10,7.40
2008,08,26,03,11,7.40
2008,08,26,03,12,7.40
2008,08,26,03,13,7.40
2008,08,26,03,14,7.40
2008,08,26,03,15,7.50
2008,08,26,03,16,7.50
2008,08,26,03,17,7.60
2008,08,26,03,18,7.60
2008,08,26,03,19,7.60
2008,08,26,03,20,7.70
2008,08,26,03,21,7.70
2008,08,26,03,22,7.70
2008,08,26,03,23,7.70
2008,08,26,03,24,7.80
2008,08,26,03,25,7.80
2008,08,26,03,26,7.80
2008,08,26,03,27,7.90
2008,08,26,03,28,7.90
2008,08,26,03,29,7.90
2008,08,26,03,30,7.90
2008,08,26,03,31,8.00
2008,08,26,03,32,8.00
2008,08,26,03,33,8.00
2008,08,26,03,34,8.00
2008,08,26,03,35,8.00
2008,08,26,03,36,8.00
2008,08,26,03,37,8.00
2008,08,26,03,38,8.00
2008,08,26,03,39,8.00
2008,08,26,03,40,8.00
2008,08,26,03,41,8.00
2008,08,26,03,42,7.90
2008,08,26,03,43,7.90
2008,08,26,03,44,7.90
2008,08,26,03,45,7.90
2008,08,26,03,46,7.80
2008,08,26,03,47,7.80
2008,08,26,03,48,7.80
2008,08,26,03,49,7.80
2008,08,26,03,50,7.80
2008,08,26,03,51,7.80
2008,08,26,03,52,7.90
2008,08,26,03,53,7.90
2008,08,26,03,54,7.90
2008,08,26,03,55,8.00
2008,08,26,03,56,8.00
2008,08,26,03,57,8.10
2008,08,26,03,58,8.10
2008,08,26,03,59,8.10
2008,08,26,04,00,8.20
2008,08,26,04,01,8.20
2008,08,26,04,02,8.20
2008,08,26,04,03,8.20
2008,08,26,04,04,8.20
2008,08,26,04,05,8.20
2008,08,26,04,06,8.20
2008,08,26,04,07,8.20
2008,08,26,04,09,8.20
2008,08,26,04,10,8.20
2008,08,26,04,11,8.20
2008,08,26,04,12,8.10
2008,08,26,04,13,8.10
2008,08,26,04,14,8.10
2008,08,26,04,15,8.00
2008,08,26,04,16,8.00
2008,08,26,04,17,7.90
2008,08,26,04,18,7.90
2008,08,26,04,19,7.90
2008,08,26,04,20,7.80
2008,08,26,04,21,7.80
2008,08,26,04,22,7.80
2008,08,26,04,23,7.80
2008,08,26,04,24,7.70
2008,08,26,04,25,7.70
2008,08,26,04,26,7.70
2008,08,26,04,27,7.70
2008,08,26,04,28,7.60
2008,08,26,04,29,7.60
2008,08,26,04,30,7.60
2008,08,26,04,31,7.60
2008,08,26,04,32,7.50
2008,08,26,04,33,7.50
2008,08,26,04,34,7.50
2008,08,26,04,35,7.40
2008,08,26,04,36,7.40
2008,08,26,04,37,7.40
2008,08,26,04,38,7.40
2008,08,26,04,39,7.40
2008,08,26,04,40,7.30
2008,08,26,04,41,7.30
2008,08,26,04,42,7.30
2008,08,26,04,43,7.20
2008,08,26,04,44,7.20
2008,08,26,04,45,7.20
2008,08,26,04,46,7.20
2008,08,26,04,47,7.20
2008,08,26,04,48,7.20
2008,08,26,04,49,7.10
2008,08,26,04,50,7.10
2008,08,26,04,51,7.10
2008,08,26,04,52,7.10
2008,08,26,04,53,7.10
2008,08,26,04,54,7.00
2008,08,26,04,55,7.00
2008,08,26,04,56,7.00
2008,08,26,04,57,7.00
2008,08,26,04,58,6.90
2008,08,26,04,59,6.90
2008,08,26,05,00,6.90
2008,08,26,05,01,6.90
2008,08,26,05,02,6.90
2008,08,26,05,03,6.80
2008,08,26,05,04,6.80
2008,08,26,05,05,6.80
2008,08,26,05,06,6.80
2008,08,26,05,07,6.70
2008,08,26,05,08,6.70
2008,08,26,05,09,6.70
2008,08,26,05,10,6.70
2008,08,26,05,11,6.70
2008,08,26,05,12,6.70
2008,08,26,05,13,6.60
2008,08,26,05,14,6.60
2008,08,26,05,15,6.60
2008,08,26,05,16,6.60
2008,08,26,05,17,6.60
2008,08,26,05,18,6.60
2008,08,26,05,19,6.60
2008,08,26,05,20,6.50
2008,08,26,05,21,6.50
2008,08,26,05,22,6.50
2008,08,26,05,23,6.50
2008,08,26,05,24,6.50
2008,08,26,05,25,6.40
2008,08,26,05,26,6.40
2008,08,26,05,27,6.40
2008,08,26,05,28,6.40
2008,08,26,05,29,6.40
2008,08,26,05,30,6.40
2008,08,26,05,31,6.40
2008,08,26,05,32,6.30
2008,08,26,05,33,6.30
2008,08,26,05,34,6.30
2008,08,26,05,35,6.30
2008,08,26,05,36,6.30
2008,08,26,05,37,6.30
2008,08,26,05,38,6.20
2008,08,26,05,39,6.20
2008,08,26,05,40,6.20
2008,08,26,05,41,6.20
2008,08,26,05,42,6.20
2008,08,26,05,43,6.20
2008,08,26,05,44,6.10
2008,08,26,05,45,6.10
2008,08,26,05,46,6.10
2008,08,26,05,47,6.10
2008,08,26,05,48,6.10
2008,08,26,05,49,6.10
2008,08,26,05,50,6.10
2008,08,26,05,51,6.10
2008,08,26,05,52,6.10
2008,08,26,05,53,6.10
2008,08,26,05,54,6.10
2008,08,26,05,55,6.10
2008,08,26,05,56,6.00
2008,08,26,05,57,6.00
2008,08,26,05,58,6.00
2008,08,26,05,59,6.00
2008,08,26,06,00,6.00
2008,08,26,06,01,6.00
2008,08,26,06,02,6.00
2008,08,26,06,03,6.00
2008,08,26,06,04,6.00
2008,08,26,06,05,6.00
2008,08,26,06,06,5.90
2008,08,26,06,07,5.90
2008,08,26,06,08,5.90
2008,08,26,06,09,5.90
2008,08,26,06,10,5.90
2008,08,26,06,11,5.90
2008,08,26,06,12,5.90
2008,08,26,06,13,5.90
2008,08,26,06,14,5.80
2008,08,26,06,15,5.80
2008,08,26,06,16,5.80
2008,08,26,06,17,5.80
2008,08,26,06,18,5.80
2008,08,26,06,19,5.80
2008,08,26,06,20,5.80
2008,08,26,06,21,5.70
2008,08,26,06,22,5.70
2008,08,26,06,23,5.70
2008,08,26,06,24,5.70
2008,08,26,06,25,5.70
2008,08,26,06,26,5.70
2008,08,26,06,27,5.70
2008,08,26,06,28,5.60
2008,08,26,06,29,5.60
2008,08,26,06,30,5.60
2008,08,26,06,31,5.60
2008,08,26,06,32,5.60
2008,08,26,06,33,5.60
2008,08,26,06,34,5.60
2008,08,26,06,35,5.60
2008,08,26,06,36,5.60
2008,08,26,06,37,5.50
2008,08,26,06,38,5.50
2008,08,26,06,39,5.50
2008,08,26,06,40,5.50
2008,08,26,06,41,5.50
2008,08,26,06,42,5.50
2008,08,26,06,43,5.50
2008,08,26,06,44,5.50
2008,08,26,06,45,5.40
2008,08,26,06,46,5.40
2008,08,26,06,47,5.40
2008,08,26,06,48,5.40
2008,08,26,06,49,5.40
2008,08,26,06,50,5.40
2008,08,26,06,51,5.40
2008,08,26,06,52,5.40
2008,08,26,06,53,5.40
2008,08,26,06,54,5.40
2008,08,26,06,55,5.40
2008,08,26,06,56,5.40
2008,08,26,06,57,5.40
2008,08,26,06,58,5.40
2008,08,26,06,59,5.40
2008,08,26,07,00,5.40
2008,08,26,07,01,5.30
2008,08,26,07,02,5.30
2008,08,26,07,03,5.30
2008,08,26,07,04,5.30
2008,08,26,07,05,5.30
2008,08,26,07,06,5.30
2008,08,26,07,07,5.30
2008,08,26,07,08,5.30
2008,08,26,07,09,5.30
2008,08,26,07,10,5.30
2008,08,26,07,11,5.30
2008,08,26,07,12,5.30
2008,08,26,07,13,5.30
2008,08,26,07,14,5.30
2008,08,26,07,15,5.30
2008,08,26,07,16,5.30
2008,08,26,07,17,5.40
2008,08,26,07,18,5.40
2008,08,26,07,19,5.40
2008,08,26,07,20,5.40
2008,08,26,07,21,5.40
2008,08,26,07,22,5.40
2008,08,26,07,23,5.40
2008,08,26,07,24,5.40
2008,08,26,07,25,5.40
2008,08,26,07,26,5.40
2008,08,26,07,27,5.40
2008,08,26,07,28,5.40
2008,08,26,07,29,5.50
2008,08,26,07,30,5.50
2008,08,26,07,31,5.50
2008,08,26,07,32,5.50
2008,08,26,07,33,5.50
2008,08,26,07,34,5.50
2008,08,26,07,35,5.60
2008,08,26,07,36,5.60
2008,08,26,07,37,5.60
2008,08,26,07,38,5.60
2008,08,26,07,39,5.70
2008,08,26,07,40,5.70
2008,08,26,07,41,5.70
2008,08,26,07,42,5.70
2008,08,26,07,43,5.70
2008,08,26,07,44,5.70
2008,08,26,07,45,5.80
2008,08,26,07,46,5.80
2008,08,26,07,47,5.80
2008,08,26,07,48,5.80
2008,08,26,07,49,5.90
2008,08,26,07,50,5.90
2008,08,26,07,51,5.90
2008,08,26,07,52,5.90
2008,08,26,07,53,6.00
2008,08,26,07,54,6.00
2008,08,26,07,55,6.10
2008,08,26,07,56,6.10
2008,08,26,07,57,6.20
2008,08,26,07,58,6.20
2008,08,26,07,59,6.30
2008,08,26,08,00,6.30
2008,08,26,08,01,6.40
2008,08,26,08,02,6.40
2008,08,26,08,03,6.40
2008,08,26,08,04,6.50
2008,08,26,08,05,6.60
2008,08,26,08,06,6.60
2008,08,26,08,07,6.70
2008,08,26,08,08,6.70
2008,08,26,08,09,6.80
2008,08,26,08,10,6.80
2008,08,26,08,11,6.90
2008,08,26,08,12,7.00
2008,08,26,08,13,7.00
2008,08,26,08,14,7.10
2008,08,26,08,15,7.20
2008,08,26,08,16,7.20
2008,08,26,08,17,7.30
2008,08,26,08,18,7.40
2008,08,26,08,19,7.60
2008,08,26,08,20,7.80
2008,08,26,08,21,7.90
2008,08,26,08,22,8.10
2008,08,26,08,23,8.30
2008,08,26,08,24,8.50
2008,08,26,08,25,8.70
2008,08,26,08,26,8.80
2008,08,26,08,27,9.00
2008,08,26,08,28,9.20
2008,08,26,08,29,9.50
2008,08,26,08,30,9.70
2008,08,26,08,31,9.90
2008,08,26,08,32,10.00
2008,08,26,08,33,10.20
2008,08,26,08,34,10.50
2008,08,26,08,35,10.60
2008,08,26,08,36,10.80
2008,08,26,08,37,11.00
2008,08,26,08,38,11.10
2008,08,26,08,39,11.30
2008,08,26,08,40,11.40
2008,08,26,08,41,11.60
2008,08,26,08,42,11.70
2008,08,26,08,43,11.90
2008,08,26,08,44,12.00
2008,08,26,08,45,12.20
2008,08,26,08,46,12.30
2008,08,26,08,47,12.40
2008,08,26,08,48,12.50
2008,08,26,08,49,12.60
2008,08,26,08,50,12.80
2008,08,26,08,51,12.90
2008,08,26,08,52,13.00
2008,08,26,08,53,13.20
2008,08,26,08,54,13.30
2008,08,26,08,55,13.40
2008,08,26,08,56,13.50
2008,08,26,08,57,13.50
2008,08,26,08,58,13.60
2008,08,26,08,59,13.70
2008,08,26,09,00,13.80
2008,08,26,09,01,13.80
2008,08,26,09,02,13.90
2008,08,26,09,03,14.00
2008,08,26,09,04,14.10
2008,08,26,09,05,14.20
2008,08,26,09,06,14.20
2008,08,26,09,07,14.30
2008,08,26,09,08,14.30
2008,08,26,09,09,14.30
2008,08,26,09,10,14.30
2008,08,26,09,11,14.30
2008,08,26,09,12,14.30
2008,08,26,09,13,14.30
2008,08,26,09,14,14.30
2008,08,26,09,15,14.30
2008,08,26,09,16,14.30
2008,08,26,09,17,14.30
2008,08,26,09,18,14.30
2008,08,26,09,19,14.40
2008,08,26,09,20,14.40
2008,08,26,09,21,14.40
2008,08,26,09,22,14.50
2008,08,26,09,23,14.60
2008,08,26,09,24,14.60
2008,08,26,09,25,14.60
2008,08,26,09,26,14.60
2008,08,26,09,27,14.70
2008,08,26,09,28,14.70
2008,08,26,09,29,14.70
2008,08,26,09,30,14.70
2008,08,26,09,31,14.70
2008,08,26,09,32,14.70
2008,08,26,09,33,14.80
2008,08,26,09,34,14.80
2008,08,26,09,35,14.80
2008,08,26,09,36,14.80
2008,08,26,09,37,14.90
2008,08,26,09,38,14.80
2008,08,26,09,39,14.80
2008,08,26,09,40,14.80
2008,08,26,09,41,14.80
2008,08,26,09,42,14.80
2008,08,26,09,43,14.80
2008,08,26,09,44,14.90
2008,08,26,09,45,15.00
2008,08,26,09,46,15.00
2008,08,26,09,47,15.00
2008,08,26,09,48,14.90
2008,08,26,09,49,14.90
2008,08,26,09,50,14.90
2008,08,26,09,51,15.00
2008,08,26,09,52,15.00
2008,08,26,09,53,14.90
2008,08,26,09,54,15.00
2008,08,26,09,55,15.00
2008,08,26,09,56,15.00
2008,08,26,09,57,15.00
2008,08,26,09,58,15.00
2008,08,26,09,59,15.00
2008,08,26,10,00,15.00
2008,08,26,10,01,15.00
2008,08,26,10,02,15.00
2008,08,26,10,03,15.00
2008,08,26,10,04,15.00
2008,08,26,10,05,15.00
2008,08,26,10,06,15.00
2008,08,26,10,07,15.00
2008,08,26,10,08,15.00
2008,08,26,10,09,15.00
2008,08,26,10,10,15.00
2008,08,26,10,11,15.00
2008,08,26,10,12,15.00
2008,08,26,10,13,15.00
2008,08,26,10,14,15.00
2008,08,26,10,15,15.00
2008,08,26,10,16,15.00
2008,08,26,10,17,15.00
2008,08,26,10,18,15.00
2008,08,26,10,19,15.00
2008,08,26,10,20,15.00
2008,08,26,10,21,15.00
2008,08,26,10,22,15.00
2008,08,26,10,23,15.10
2008,08,26,10,24,15.20
2008,08,26,10,25,15.30
2008,08,26,10,26,15.40
2008,08,26,10,27,15.60
2008,08,26,10,28,15.70
2008,08,26,10,29,15.70
2008,08,26,10,30,15.80
2008,08,26,10,31,15.80
2008,08,26,10,32,15.80
2008,08,26,10,33,15.80
2008,08,26,10,34,15.80
2008,08,26,10,35,15.80
2008,08,26,10,36,15.80
2008,08,26,10,37,15.80
2008,08,26,10,38,15.80
2008,08,26,10,39,15.80
2008,08,26,10,40,15.70
2008,08,26,10,41,15.80
2008,08,26,10,42,15.80
2008,08,26,10,43,15.80
2008,08,26,10,44,15.90
2008,08,26,10,45,15.90
2008,08,26,10,46,15.90
2008,08,26,10,47,16.00
2008,08,26,10,48,16.00
2008,08,26,10,49,16.10
2008,08,26,10,50,16.10
2008,08,26,10,51,16.20
2008,08,26,10,52,16.30
2008,08,26,10,53,16.20
2008,08,26,10,54,16.20
2008,08,26,10,55,16.10
2008,08,26,10,56,16.10
2008,08,26,10,57,16.00
2008,08,26,10,58,16.00
2008,08,26,10,59,16.00
2008,08,26,11,00,15.90
2008,08,26,11,01,15.90
2008,08,26,11,02,15.90
2008,08,26,11,03,16.00
2008,08,26,11,04,16.10
2008,08,26,11,05,16.10
2008,08,26,11,06,16.10
2008,08,26,11,07,16.10
2008,08,26,11,08,16.10
2008,08,26,11,09,16.00
2008,08,26,11,10,16.10
2008,08,26,11,11,16.10
2008,08,26,11,12,16.20
2008,08,26,11,13,16.10
2008,08,26,11,14,16.10
2008,08,26,11,15,16.10
2008,08,26,11,16,16.20
2008,08,26,11,17,16.20
2008,08,26,11,18,16.20
2008,08,26,11,19,16.30
2008,08,26,11,20,16.40
2008,08,26,11,21,16.50
2008,08,26,11,22,16.60
2008,08,26,11,23,16.60
2008,08,26,11,24,16.50
2008,08,26,11,25,16.40
2008,08,26,11,26,16.40
2008,08,26,11,27,16.40
2008,08,26,11,28,16.50
2008,08,26,11,29,16.50
2008,08,26,11,30,16.50
2008,08,26,11,31,16.60
2008,08,26,11,32,16.70
2008,08,26,11,33,16.80
2008,08,26,11,34,16.90
2008,08,26,11,35,17.00
2008,08,26,11,36,17.10
2008,08,26,11,37,17.10
2008,08,26,11,38,17.00
2008,08,26,11,39,17.00
2008,08,26,11,40,17.00
2008,08,26,11,41,17.00
2008,08,26,11,42,17.00
2008,08,26,11,43,17.10
2008,08,26,11,44,17.10
2008,08,26,11,45,17.20
2008,08,26,11,46,17.10
2008,08,26,11,47,17.00
2008,08,26,11,48,17.00
2008,08,26,11,49,16.90
2008,08,26,11,50,16.70
2008,08,26,11,51,16.70
2008,08,26,11,52,16.70
2008,08,26,11,53,16.70
2008,08,26,11,54,16.70
2008,08,26,11,55,16.60
2008,08,26,11,56,16.60
2008,08,26,11,57,16.60
2008,08,26,11,58,16.60
2008,08,26,11,59,16.60
2008,08,26,12,00,16.60
2008,08,26,12,01,16.70
2008,08,26,12,02,16.70
2008,08,26,12,03,16.60
2008,08,26,12,04,16.60
2008,08,26,12,05,16.50
2008,08,26,12,06,16.50
2008,08,26,12,07,16.40
2008,08,26,12,08,16.30
2008,08,26,12,09,16.30
2008,08,26,12,10,16.20
2008,08,26,12,11,16.20
2008,08,26,12,12,16.10
2008,08,26,12,13,16.00
2008,08,26,12,14,15.90
2008,08,26,12,15,15.90
2008,08,26,12,16,15.90
2008,08,26,12,17,15.90
2008,08,26,12,18,15.90
2008,08,26,12,19,15.90
2008,08,26,12,20,15.90
2008,08,26,12,21,15.90
2008,08,26,12,22,15.90
2008,08,26,12,23,16.00
2008,08,26,12,24,16.10
2008,08,26,12,25,16.10
2008,08,26,12,26,16.20
2008,08,26,12,27,16.30
2008,08,26,12,28,16.40
2008,08,26,12,29,16.50
2008,08,26,12,30,16.60
2008,08,26,12,31,16.70
2008,08,26,12,32,16.70
2008,08,26,12,33,16.80
2008,08,26,12,34,16.80
2008,08,26,12,35,16.90
2008,08,26,12,36,16.90
2008,08,26,12,37,16.90
2008,08,26,12,38,16.90
2008,08,26,12,39,17.00
2008,08,26,12,40,17.00
2008,08,26,12,41,17.10
2008,08,26,12,42,17.20
2008,08,26,12,43,17.20
2008,08,26,12,44,17.10
2008,08,26,12,45,17.10
2008,08,26,12,46,17.20
2008,08,26,12,47,17.20
2008,08,26,12,48,17.20
2008,08,26,12,49,17.20
2008,08,26,12,50,17.10
2008,08,26,12,51,17.10
2008,08,26,12,52,17.00
2008,08,26,12,53,16.90
2008,08,26,12,54,16.80
2008,08,26,12,55,16.70
2008,08,26,12,56,16.70
2008,08,26,12,57,16.70
2008,08,26,12,58,16.70
2008,08,26,12,59,16.70
2008,08,26,13,00,16.70
2008,08,26,13,01,16.70
2008,08,26,13,02,16.70
2008,08,26,13,03,16.60
2008,08,26,13,04,16.50
2008,08,26,13,05,16.50
2008,08,26,13,06,16.40
2008,08,26,13,07,16.40
2008,08,26,13,08,16.40
2008,08,26,13,09,16.40
2008,08,26,13,10,16.40
2008,08,26,13,11,16.40
2008,08,26,13,12,16.30
2008,08,26,13,13,16.30
2008,08,26,13,14,16.20
2008,08,26,13,15,16.10
2008,08,26,13,16,16.10
2008,08,26,13,17,16.00
2008,08,26,13,18,15.90
2008,08,26,13,19,15.90
2008,08,26,13,20,15.90
2008,08,26,13,21,15.90
2008,08,26,13,22,16.00
2008,08,26,13,23,16.00
2008,08,26,13,24,15.90
2008,08,26,13,25,15.90
2008,08,26,13,26,15.90
2008,08,26,13,27,15.80
2008,08,26,13,28,15.80
2008,08,26,13,29,15.80
2008,08,26,13,30,15.80
2008,08,26,13,31,15.80
2008,08,26,13,32,15.80
2008,08,26,13,33,15.80
2008,08,26,13,34,15.80
2008,08,26,13,35,15.80
2008,08,26,13,36,15.80
2008,08,26,13,37,15.80
2008,08,26,13,38,15.80
2008,08,26,13,39,15.80
2008,08,26,13,40,15.80
2008,08,26,13,41,15.80
2008,08,26,13,42,15.80
2008,08,26,13,43,15.90
2008,08,26,13,44,15.90
2008,08,26,13,45,16.00
2008,08,26,13,46,16.00
2008,08,26,13,47,16.00
2008,08,26,13,48,15.90
2008,08,26,13,49,15.90
2008,08,26,13,50,15.90
2008,08,26,13,51,15.80
2008,08,26,13,52,15.80
2008,08,26,13,53,15.90
2008,08,26,13,54,15.90
2008,08,26,13,55,16.00
2008,08,26,13,56,16.00
2008,08,26,13,57,16.10
2008,08,26,13,58,16.10
2008,08,26,13,59,16.20
2008,08,26,14,00,16.20
2008,08,26,14,01,16.20
2008,08,26,14,02,16.20
2008,08,26,14,03,16.20
2008,08,26,14,04,16.20
2008,08,26,14,05,16.10
2008,08,26,14,06,16.00
2008,08,26,14,07,16.00
2008,08,26,14,08,15.90
2008,08,26,14,09,15.90
2008,08,26,14,10,15.90
2008,08,26,14,11,15.90
2008,08,26,14,12,15.90
2008,08,26,14,13,15.80
2008,08,26,14,14,15.80
2008,08,26,14,15,15.80
2008,08,26,14,16,15.70
2008,08,26,14,17,15.80
2008,08,26,14,18,15.80
2008,08,26,14,19,15.80
2008,08,26,14,20,15.80
2008,08,26,14,21,15.80
2008,08,26,14,22,15.80
2008,08,26,14,23,15.90
2008,08,26,14,24,16.00
2008,08,26,14,25,16.00
2008,08,26,14,26,16.00
2008,08,26,14,27,15.90
2008,08,26,14,28,15.90
2008,08,26,14,29,15.90
2008,08,26,14,30,16.00
2008,08,26,14,31,16.10
2008,08,26,14,32,16.20
2008,08,26,14,33,16.30
2008,08,26,14,34,16.30
2008,08,26,14,35,16.30
2008,08,26,14,36,16.30
2008,08,26,14,37,16.30
2008,08,26,14,38,16.30
2008,08,26,14,39,16.30
2008,08,26,14,40,16.30
2008,08,26,14,41,16.30
2008,08,26,14,42,16.30
2008,08,26,14,43,16.20
2008,08,26,14,44,16.20
2008,08,26,14,45,16.10
2008,08,26,14,46,16.10
2008,08,26,14,47,16.10
2008,08,26,14,48,16.10
2008,08,26,14,49,16.10
2008,08,26,14,50,16.10
2008,08,26,14,51,16.00
2008,08,26,14,52,16.10
2008,08,26,14,53,16.10
2008,08,26,14,54,16.10
2008,08,26,14,55,16.10
2008,08,26,14,56,16.20
2008,08,26,14,57,16.20
2008,08,26,14,58,16.20
2008,08,26,14,59,16.20
2008,08,26,15,00,16.30
2008,08,26,15,01,16.30
2008,08,26,15,02,16.40
2008,08,26,15,03,16.30
2008,08,26,15,04,16.30
2008,08,26,15,05,16.20
2008,08,26,15,06,16.20
2008,08,26,15,07,16.20
2008,08,26,15,08,16.10
2008,08,26,15,09,16.10
2008,08,26,15,10,16.00
2008,08,26,15,11,15.90
2008,08,26,15,12,15.90
2008,08,26,15,13,15.80
2008,08,26,15,14,15.70
2008,08,26,15,15,15.70
2008,08,26,15,16,15.60
2008,08,26,15,17,15.60
2008,08,26,15,18,15.60
2008,08,26,15,19,15.60
2008,08,26,15,20,15.60
2008,08,26,15,21,15.50
2008,08,26,15,22,15.40
2008,08,26,15,23,15.30
2008,08,26,15,24,15.30
2008,08,26,15,25,15.30
2008,08,26,15,26,15.30
2008,08,26,15,27,15.40
2008,08,26,15,28,15.40
2008,08,26,15,29,15.40
2008,08,26,15,30,15.40
2008,08,26,15,31,15.40
2008,08,26,15,32,15.30
2008,08,26,15,33,15.30
2008,08,26,15,34,15.30
2008,08,26,15,35,15.30
2008,08,26,15,36,15.30
2008,08,26,15,37,15.20
2008,08,26,15,38,15.20
2008,08,26,15,39,15.10
2008,08,26,15,40,15.10
2008,08,26,15,41,15.10
2008,08,26,15,42,15.00
2008,08,26,15,43,15.00
2008,08,26,15,44,15.00
2008,08,26,15,45,15.00
2008,08,26,15,46,15.00
2008,08,26,15,47,15.00
2008,08,26,15,48,15.00
2008,08,26,15,49,15.00
2008,08,26,15,50,15.00
2008,08,26,15,51,15.00
2008,08,26,15,52,15.00
2008,08,26,15,53,15.00
2008,08,26,15,54,14.90
2008,08,26,15,55,14.90
2008,08,26,15,56,14.90
2008,08,26,15,57,14.90
2008,08,26,15,58,14.80
2008,08,26,15,59,14.80
2008,08,26,16,00,14.80
2008,08,26,16,01,14.80
2008,08,26,16,02,14.80
2008,08,26,16,03,14.70
2008,08,26,16,04,14.70
2008,08,26,16,05,14.70
2008,08,26,16,06,14.60
2008,08,26,16,07,14.60
2008,08,26,16,08,14.60
2008,08,26,16,09,14.60
2008,08,26,16,10,14.60
2008,08,26,16,11,14.60
2008,08,26,16,12,14.60
2008,08,26,16,13,14.60
2008,08,26,16,14,14.60
2008,08,26,16,15,14.70
2008,08,26,16,16,14.70
2008,08,26,16,17,14.70
2008,08,26,16,18,14.80
2008,08,26,16,19,14.80
2008,08,26,16,20,14.80
2008,08,26,16,21,14.80
2008,08,26,16,22,14.80
2008,08,26,16,23,14.80
2008,08,26,16,24,14.80
2008,08,26,16,25,14.80
2008,08,26,16,26,14.80
2008,08,26,16,27,14.80
2008,08,26,16,28,14.80
2008,08,26,16,29,14.80
2008,08,26,16,30,14.80
2008,08,26,16,31,14.80
2008,08,26,16,32,14.80
2008,08,26,16,33,14.80
2008,08,26,16,34,14.80
2008,08,26,16,35,14.80
2008,08,26,16,36,14.80
2008,08,26,16,37,14.80
2008,08,26,16,38,14.80
2008,08,26,16,39,14.80
2008,08,26,16,40,14.80
2008,08,26,16,41,14.80
2008,08,26,16,42,14.70
2008,08,26,16,43,14.70
2008,08,26,16,44,14.70
2008,08,26,16,45,14.60
2008,08,26,16,46,14.60
2008,08,26,16,47,14.50
2008,08,26,16,48,14.50
2008,08,26,16,49,14.50
2008,08,26,16,50,14.50
2008,08,26,16,51,14.50
2008,08,26,16,52,14.50
2008,08,26,16,53,14.60
2008,08,26,16,54,14.60
2008,08,26,16,55,14.60
2008,08,26,16,56,14.60
2008,08,26,16,57,14.60
2008,08,26,16,58,14.50
2008,08,26,16,59,14.50
2008,08,26,17,00,14.50
2008,08,26,17,01,14.50
2008,08,26,17,02,14.50
2008,08,26,17,03,14.50
2008,08,26,17,04,14.50
2008,08,26,17,05,14.50
2008,08,26,17,06,14.40
2008,08,26,17,07,14.40
2008,08,26,17,08,14.40
2008,08,26,17,09,14.40
2008,08,26,17,10,14.40
2008,08,26,17,11,14.40
2008,08,26,17,12,14.40
2008,08,26,17,13,14.40
2008,08,26,17,14,14.40
2008,08,26,17,15,14.40
2008,08,26,17,16,14.40
2008,08,26,17,17,14.40
2008,08,26,17,18,14.40
2008,08,26,17,19,14.40
2008,08,26,17,20,14.40
2008,08,26,17,21,14.40
2008,08,26,17,22,14.30
2008,08,26,17,23,14.30
2008,08,26,17,24,14.30
2008,08,26,17,25,14.30
2008,08,26,17,26,14.30
2008,08,26,17,27,14.30
2008,08,26,17,28,14.30
2008,08,26,17,29,14.30
2008,08,26,17,30,14.30
2008,08,26,17,31,14.30
2008,08,26,17,32,14.30
2008,08,26,17,33,14.20
2008,08,26,17,34,14.20
2008,08,26,17,35,14.20
2008,08,26,17,36,14.20
2008,08,26,17,37,14.20
2008,08,26,17,38,14.20
2008,08,26,17,39,14.20
2008,08,26,17,40,14.10
2008,08,26,17,41,14.10
2008,08,26,17,42,14.10